FENGYUN 2H DEB, 43645

Orbit data source: Space-Track

FENGYUN 2H DEB, 43645 is space debris in GEO originally from a launch on Tue, 05 Jun 2018 UTC launched from the Xichang Space Center, China (XSC). Debris objects in space refer to the collection of defunct objects orbiting the Earth. Examples of debris include non-operational satellites, rocket bodies, and fragments generated from explosions, collisions, or faulty payload assembly.

Not visible in the next 10 days
Identifier
43645, 2018-050D
Orbit
GEO
Country
Flag of CNCN / PRC
Related business
Manufacturer
SISE
Mission
Spacecraft
Bus & Motor
Unknown
Mass
Unknown
Launch date (UTC)
2018-06-05 (7 years ago)
Launch vehicle
Unknown
Launch site
Xichang Space Center, China (XSC)
Object type
Payload
Rocket body
Debris
Shape & HBR
Cyl, 0.3 m
Radar Cross Section
0.137 m²

Expand to show TLE details & history
Last TLE update: 2 days ago

TLE from 2 days ago
0 FENGYUN 2H DEB
1 43645U 18050D   25260.05915169  .00000021  00000-0  00000-0 0  9990
2 43645   4.1947  79.7249 0039091 251.1207 108.7582  1.00229224 26187
Epoch: 2025-09-17T01:25Z
TLE epoch observation values (Epoch: 2025-09-17T01:25:10.706Z)
Latitude
Longitude
62.48837°
Altitude
35,851.383 km
Speed
3.07 km/s
True Right ascension
05h 20m 05s
True Declination
0° 00' 00"
Sunlit
Object was in daylight at epoch
Visualization orbit readout
Latitude
Unknown
Longitude
Unknown
Altitude
Unknown
Speed
Unknown
Apparent Right ascension
Unknown
Apparent Declination
Unknown
Sunlit
N/A
Visualization observer readout
Local Sidereal Time
12:48:55
Azimuth
Unknown
Elevation
Unknown
Doppler factor
Unknown
Orbital elements
Apogee altitude
35,964.469 km
Perigee altitude
35,634.715 km
Semi-major axis
42,177.729 km
Eccentricity
0.00391
Inclination
4.1947°
RAAN
79.7249°
Arg. of periapsis
251.1207°
True anomaly
109.18169°
Mean anomaly
108.7582°
Eccentric anomaly
108.97001°
Mean motion
0.25056 °/min
Orbital period
1,436.76 mins
BSTAR
0
Loading maneuver chart data...
Computing Atmospheric mass density...
Loading historical data...
Loading historical data...
Loading historical data...
Loading historical data...
Loading historical data...
Loading historical data...
Loading historical data...
Other satellites on launch #50 in the year 2018 (2018-06-05 UTC)

Documentation

Showing up to 5 results
|